DMSP 5D-2 F6 DEB, 40914

Orbit data source: Space-Track

DMSP 5D-2 F6 DEB, 40914 is space debris in SSO originally from a launch on Tue, 21 Dec 1982 UTC launched from the Air Force Western Test Range (AFWTR). Debris objects in space refer to the collection of defunct objects orbiting the Earth. Examples of debris include non-operational satellites, rocket bodies, and fragments generated from explosions, collisions, or faulty payload assembly.

Loading next visibility...
DMSP 5D-2 F6 DEB details
Identifier
40914, 1982-118G
Orbit
SSO
Last TLE update3 months ago
Origin
Flag of USUSAF SMC (US)
ManufacturerUnknown
MissionSpacecraft
Bus & MotorUnknown
MassUnknown
Launch date (UTC)
1982-12-21 (42 years ago)
Launch vehicleUnknown
Launch site
Air Force Western Test Range (AFWTR)
Object type
Payload
Rocket body
Debris
Shape & HBRUnknown
Radar Cross SectionSmall (<0.1 m²)

Expand to show TLE details & history

TLE from 3 months ago
0 DMSP 5D-2 F6 DEB
1 40914U 82118G   24282.37058455  .00074353  00000-0  14149-1 0  9995
2 40914  98.4292 132.6962 0014371  28.3007 331.8972 14.63597326444381
Epoch: 2024-10-08T08:53Z
Definitive object data (Epoch: 2024-10-08T08:53:38.505Z)
Latitude-0.00002°
Longitude-18.19904°
Altitude675.617 km
Speed7.524 km/s
True Right ascension08h 50m 47s
True Declination0° 00' 00"
Sunlit
Object was in daylight at TLE epoch
Visualization TLE readout
Latitude81.09047°
Longitude-6.73375°
Altitude645.804 km
Speed7.545 km/s
Apparent Right ascension21h 10m 29s
Apparent Declination36° 44' 36"
Sunlit
Object is in daylight
Visualization observer readout
Local Sidereal Time09:16:18
Azimuth1.197° NNE
Elevation-13.329°
Doppler factor1
Orbital elements
Apogee altitude688.811 km
Perigee altitude668.528 km
Semi-major axis7,056.806 km
Eccentricity0.0014371
Inclination98.4292°
RAAN132.6962°
Arg. of periapsis28.3007°
True anomaly331.8195°
Mean anomaly331.8972°
Eccentric anomaly331.85836°
Mean motion3.66126 °/min
BSTAR0.014149
Orbital period98.33 mins
Loading maneuver chart data...
Loading historical data...
Loading historical data...
Loading historical data...
Loading historical data...
Loading historical data...
Loading historical data...
Loading historical data...

DMSP 5D-2 F6 DEB Visibility forecast

Observer location: undefined°, undefined

Span
Click to sort rows by Start time (UTC) header in descending order
Start Az.
Max El. time (UTC)
Max El. Az.
Max El.
End time (UTC)
End Az.
7 mins2024-12-26 14:32:12.399Z174.288° S2024-12-26 14:35:12.399Z264.769° W43.917°2024-12-26 14:39:12.399Z342.668° N
5 mins2024-12-27 02:23:12.399Z58.812° ENE2024-12-27 02:25:12.399Z92.04° ESE18.734°2024-12-27 02:28:12.399Z138.948° SSE
6 mins2024-12-27 03:59:12.399Z344.531° N2024-12-27 04:02:12.399Z278.163° WNW28.942°2024-12-27 04:05:12.399Z228.631° WSW
|